SVA728 OEJN-OPIS

Flight info

Callsign SVA728
Flight time N/A
Altitude 39000
Route EGREP T532 KODIS Y214 RAPMA/N0455F290 Y214 KUTNA M440 MIDGU/N0479F390 M440 TULBU G652 KUSRA DCT VUSET DCT BIVIN G325 HANGU J139 KALMI
Aircraft B77W/H-SDE2E3FGHIRWXY/L

Departure

Time N/A
Airport King Abdulaziz International Airport (OEJN)

Arrival

Time 2026-04-27 14:11
Airport Islamabad International Airport (OPIS)
Time Latitude Longitude Altitude Speed Heading
2026-04-27 13:58 33.55221 73.57343 8428 ft 278 kts 261°
2026-04-27 13:58 33.55125 73.55029 8443 ft 279 kts 268°
2026-04-27 13:58 33.55068 73.52697 8446 ft 280 kts 267°
2026-04-27 13:58 33.54990 73.50358 8385 ft 282 kts 266°
2026-04-27 13:59 33.54909 73.48007 8075 ft 283 kts 266°
2026-04-27 13:59 33.54828 73.45681 7461 ft 282 kts 267°
2026-04-27 13:59 33.54745 73.43357 6854 ft 277 kts 267°
2026-04-27 13:59 33.54662 73.41072 6258 ft 272 kts 268°
2026-04-27 14:00 33.54579 73.38815 5643 ft 270 kts 268°
2026-04-27 14:00 33.54497 73.36583 5017 ft 267 kts 268°
2026-04-27 14:00 33.54415 73.34378 4410 ft 263 kts 268°
2026-04-27 14:00 33.54333 73.32201 4031 ft 262 kts 269°
2026-04-27 14:01 33.54254 73.30077 3843 ft 244 kts 269°
2026-04-27 14:01 33.54179 73.28180 3741 ft 210 kts 268°
2026-04-27 14:01 33.54116 73.26575 3732 ft 177 kts 268°
2026-04-27 14:01 33.54062 73.25218 3691 ft 151 kts 269°
2026-04-27 14:02 33.54016 73.24031 3685 ft 138 kts 269°
2026-04-27 14:02 33.53972 73.22886 3727 ft 138 kts 269°
2026-04-27 14:02 33.53927 73.21729 3738 ft 139 kts 268°
2026-04-27 14:02 33.53882 73.20579 3735 ft 137 kts 268°
2026-04-27 14:03 33.53839 73.19454 3722 ft 133 kts 269°
2026-04-27 14:03 33.53797 73.18321 3744 ft 138 kts 268°
2026-04-27 14:03 33.53751 73.17179 3724 ft 136 kts 269°
2026-04-27 14:03 33.53706 73.16042 3735 ft 138 kts 266°
2026-04-27 14:04 33.53418 73.14961 3720 ft 137 kts 241°
2026-04-27 14:04 33.52933 73.13947 3741 ft 142 kts 245°
2026-04-27 14:04 33.52506 73.12905 3728 ft 137 kts 246°
2026-04-27 14:04 33.52085 73.11886 3722 ft 139 kts 245°
2026-04-27 14:05 33.51706 73.10822 3718 ft 138 kts 255°
2026-04-27 14:05 33.51512 73.09695 3720 ft 138 kts 268°
2026-04-27 14:05 33.51612 73.08542 3721 ft 137 kts 282°
2026-04-27 14:05 33.51759 73.07418 3709 ft 139 kts 279°
2026-04-27 14:06 33.51901 73.06272 3712 ft 139 kts 285°
2026-04-27 14:06 33.52309 73.05248 3717 ft 136 kts 298°
2026-04-27 14:06 33.52519 73.04161 3694 ft 135 kts 264°
2026-04-27 14:06 33.52360 73.03047 3709 ft 139 kts 270°
2026-04-27 14:07 33.52530 73.01912 3723 ft 139 kts 283°
2026-04-27 14:07 33.52640 73.00739 3717 ft 142 kts 275°
2026-04-27 14:07 33.52706 72.99571 3709 ft 138 kts 275°
2026-04-27 14:07 33.52767 72.98428 3696 ft 137 kts 274°
2026-04-27 14:08 33.52828 72.97285 3695 ft 138 kts 275°
2026-04-27 14:08 33.52919 72.96130 3590 ft 142 kts 278°
2026-04-27 14:08 33.53070 72.94983 3433 ft 137 kts 281°
2026-04-27 14:08 33.53239 72.93849 3240 ft 138 kts 283°
2026-04-27 14:09 33.53416 72.92713 3067 ft 139 kts 283°
2026-04-27 14:09 33.53594 72.91576 2903 ft 139 kts 282°
2026-04-27 14:09 33.53771 72.90438 2724 ft 139 kts 282°
2026-04-27 14:09 33.53949 72.89299 2550 ft 138 kts 282°
2026-04-27 14:10 33.54126 72.88170 2384 ft 138 kts 281°
2026-04-27 14:10 33.54307 72.87051 2196 ft 136 kts 282°
2026-04-27 14:10 33.54475 72.85953 2055 ft 133 kts 280°
2026-04-27 14:10 33.54649 72.84853 1847 ft 134 kts 279°
2026-04-27 14:11 33.54807 72.83779 1778 ft 120 kts 280°
2026-04-27 14:11 33.54926 72.83013 1773 ft 67 kts 281°
2026-04-27 14:11 33.54996 72.82591 1772 ft 47 kts 282°
2026-04-27 14:11 33.55116 72.82452 1770 ft 5 kts
2026-04-27 14:12 33.55117 72.82452 1771 ft 0 kts
2026-04-27 14:13 33.55118 72.82452 1771 ft 2 kts
2026-04-27 14:13 33.55160 72.82462 1772 ft 11 kts 16°
2026-04-27 14:13 33.55204 72.82528 1773 ft 11 kts 90°
2026-04-27 14:13 33.55261 72.82590 1773 ft 13 kts 18°
2026-04-27 14:14 33.55358 72.82616 1773 ft 15 kts 12°
2026-04-27 14:14 33.55444 72.82694 1774 ft 17 kts 57°
2026-04-27 14:14 33.55511 72.82816 1774 ft 19 kts 56°
2026-04-27 14:14 33.55586 72.82945 1774 ft 18 kts 55°
2026-04-27 14:15 33.55664 72.83057 1773 ft 14 kts 28°
2026-04-27 14:15 33.55721 72.83090 1772 ft 2 kts 52°
2026-04-27 14:15 33.55725 72.83116 1774 ft 4 kts 82°
2026-04-27 14:15 33.55725 72.83157 1774 ft 2 kts 90°
2026-04-27 14:16 33.55724 72.83169 1773 ft 1 kts 94°
2026-04-27 14:16 33.55724 72.83176 1772 ft 1 kts 95°
2026-04-27 14:16 33.55724 72.83179 1772 ft 0 kts 95°